Hourly Data Report for October 10, 2005

TORONTO CITY
ONTARIO

43°40'00.000" N
79°24'00.000" W
112.50 m
6158355
71508
XTO

Download Data

Hourly Data (October 2005)
Hourly Data Report for October 10, 2005
TIME
LST
Temp Definition
°C
Dew Point Definition
°C
Rel Hum Definition
%
Precip. Amount Definition
mm

Wind Dir Definition
10's deg

Wind Spd Definition
km/h
Visibility Definition
km
Stn Press Definition
kPa
Hmdx Definition


Wind Chill Definition


Weather Definition


00:00 12.0 8.4 79   LegendMM LegendMM   100.63     LegendNANA
01:00 12.1 8.9 81   LegendMM LegendMM   100.63     LegendNANA
02:00 11.9 8.7 81   LegendMM LegendMM   100.62     LegendNANA
03:00 11.6 9.0 84   LegendMM LegendMM   100.58     LegendNANA
04:00 11.4 8.8 84   LegendMM LegendMM   100.59     LegendNANA
05:00 11.2 8.7 85   LegendMM LegendMM   100.60     LegendNANA
06:00 11.1 8.8 86   LegendMM LegendMM   100.64     LegendNANA
07:00 10.5 9.0 90   LegendMM LegendMM   100.68     LegendNANA
08:00 10.5 9.9 96   LegendMM LegendMM   100.69     LegendNANA
09:00 10.7 9.9 95   LegendMM LegendMM   100.74     LegendNANA
10:00 11.7 10.1 90   LegendMM LegendMM   100.70     LegendNANA
11:00 12.1 9.8 86   LegendMM LegendMM   100.67     LegendNANA
12:00 12.6 9.8 83   LegendMM LegendMM   100.63     LegendNANA
13:00 12.8 9.7 81   LegendMM LegendMM   100.59     LegendNANA
14:00 13.3 9.9 80   LegendMM LegendMM   100.61     LegendNANA
15:00 12.8 10.4 85   LegendMM LegendMM   100.62     LegendNANA
16:00 12.3 10.8 91   LegendMM LegendMM   100.61     LegendNANA
17:00 12.5 11.0 91   LegendMM LegendMM   100.58     LegendNANA
18:00 12.4 11.2 92   LegendMM LegendMM   100.65     LegendNANA
19:00 12.3 10.9 91   LegendMM LegendMM   100.69     LegendNANA
20:00 12.1 11.3 95   LegendMM LegendMM   100.73     LegendNANA
21:00 12.0 11.4 96   LegendMM LegendMM   100.75     LegendNANA
22:00 12.1 11.2 94   LegendMM LegendMM   100.75     LegendNANA
23:00 12.2 10.6 90   LegendMM LegendMM   100.72     LegendNANA

Notes on Data Quality.

Legend

  • E = Estimated
  • M = Missing
  • NA = Not Available*
  • [empty] = Indicates an unobserved value
Date modified: